Location: Krakow
(50.0830°N, 19.9170°E)
Time: 11:26:13
(UTC+01:00)

Transit 2A - Pass Details

Date: 10 February 2023
Orbit: 591 x 964 km, 66.7° (Epoch: 21 March)

Event Time Altitude Azimuth Distance (km) Brightness Sun altitude
Rises 20:19:05 0° 314° (NW) 3,363 10.2 -33.7°
Reaches altitude 10° 20:22:21 10° 334° (NNW) 2,501 9.1 -34.2°
Enters shadow 20:25:10 17° 3° (N) 2,098 8.4 -34.7°
Maximum altitude 20:26:11 18° 15° (NNE) 2,077 - -34.8°
Drops below altitude 10° 20:30:12 10° 56° (ENE) 2,635 - -35.4°
Sets 20:33:46 0° 75° (ENE) 3,620 - -35.9°
